Location: Newark
(48.2308°N, 120.8549°W)
Time: 22:57:30
(UTC+00:00)

FENGYUN 1C DEB - Pass Details

Date: 30 January 2022
Orbit: 822 x 948 km, 99.2° (Epoch: 23 May)

Event Time Altitude Azimuth Distance (km) Brightness Sun altitude
Rises 03:11:40 0° 162° (SSE) 3,612 ? -22.2°
Reaches altitude 10° 03:14:06 10° 162° (SSE) 2,672 ? -22.6°
Maximum altitude 03:20:08 89° 73° (ENE) 956 ? -23.6°
Drops below altitude 10° 03:26:07 10° 345° (NNW) 2,658 ? -24.6°
Sets 03:28:33 0° 345° (NNW) 3,593 ? -25.0°
